Terminal Aerodrome Forecast
Issued by NWS

Home | Current Version | Previous Version | Text Only | Print | Product List | Glossary On
Versions: 1 2 3 4 5 6 7 8 9 10 11 12
000
FTAK31 PAFA 191734
TAFATA
TAF
PATA 191734Z 1918/2018 06004KT P6SM SCT100
     FM192000 09010KT P6SM SKC
     FM200600 06004KT P6SM SKC=

USA.gov is the U.S. government's official web portal to all federal, state and local government web resources and services.